Overview Statistics Trail Chart Weather Telemetry Raw packets
 

This is the latest recevied weather packets stored in our database for station/object W6JCZ-13. If no packets are shown the sender has not sent any weather packets the latest 10 day(s).

<< 43 44 45 46 47 48 49 >>
Time Temp. Humidity Pressure Rain* Wind** Luminosity Snow
1787965817 25.56° C 49% 1011.1 hPa 0 mm - - -
1787965217 25.56° C 48% 1011.2 hPa 0 mm - - -
1787964617 25.56° C 46% 1011.2 hPa 0 mm - - -
1787964017 26.11° C 48% 1011.3 hPa 0 mm - - -
1787963418 26.67° C 48% 1011.4 hPa 0 mm - - -
1787962817 26.67° C 47% 1011.5 hPa 0 mm - - -
1787962217 26.11° C 52% 1011.5 hPa 0 mm - - -
1787961623 25.56° C 51% 1011.6 hPa 0 mm - - -
1787961017 25.56° C 50% 1011.6 hPa 0 mm - - -
1787960417 25.56° C 49% 1011.5 hPa 0 mm - - -
1787959817 25.56° C 50% 1011.5 hPa 0 mm - - -
1787959217 26.11° C 50% 1011.5 hPa 0 mm - - -
1787958617 26.11° C 48% 1011.6 hPa 0 mm - - -
1787958017 26.11° C 47% 1011.8 hPa 0 mm - - -
1787957417 26.67° C 46% 1011.9 hPa 0 mm - - -
1787956817 26.67° C 48% 1011.9 hPa 0 mm - - -
1787956217 26.67° C 49% 1011.8 hPa 0 mm - - -
1787955618 26.67° C 47% 1011.9 hPa 0 mm - - -
1787955017 26.67° C 46% 1012 hPa 0 mm - - -
1787954418 26.67° C 47% 1012 hPa 0 mm - - -
1787953819 26.67° C 49% 1012.1 hPa 0 mm - - -
1787953217 26.67° C 46% 1012.2 hPa 0 mm - - -
1787952617 26.11° C 46% 1012.1 hPa 0 mm - - -
1787952017 26.11° C 47% 1012.2 hPa 0 mm - - -
1787951417 26.11° C 48% 1012.6 hPa 0 mm - - -

* Rain latest hour (hover to see other rain measurements)
** Current wind speed in m/s (hover to see current wind gust speed)